Miscellaneous Local Product
Issued by NWS North Platte, NE

Home | Current Version | Previous Version | Text Only | Print | Product List | Glossary On
Versions: 1 2 3 4 5 6 7 8 9 10 11 12 13 14 15 16 17 18 19 20 21 22 23 24 25 26 27 28 29 30 31 32 33 34 35 36 37 38 39 40 41 42 43 44 45 46 47 48 49 50
000
AXUS43 KLBF 051910
MISLBF


WESTERN AND NORTH CENTRAL NEBRASKA HOURLY WEATHER ROUNDUP
NATIONAL WEATHER SERVICE NORTH PLATTE NE
100 PM CST THU MAR 05 2015

***STATIONS NOT REPORTING VARIABLES SUCH AS SKY/WEATHER OR
PRESSURE ARE PROVIDED BY THE NEBRASKA DEPARTMENT OF
ROADS...RAWS...AND APRS NETWORKS...AND ARE NOT UNDER
NATIONAL WEATHER SERVICE QUALITY CONTROL***

...OBSERVATIONS IN AND NEAR THE EASTERN PANHANDLE OF NEBRASKA...

CITY           SKY/WX    TMP DP  RH WIND       PRES   REMARKS
WHITECLAY        N/A     32  12  43 W7          N/A  WCI  26
CRESCENT LAKE    N/A     41  11  28 W13G21      N/A
LISCO            N/A     43   3  19 W20         N/A
BIG SPRINGS      N/A     43  25  49 W13         N/A
LEWELLEN         N/A     42   6  22 W18         N/A
$$

...OBSERVATIONS IN NORTH CENTRAL NEBRASKA...

CITY           SKY/WX    TMP DP  RH WIND       PRES   REMARKS
THEDFORD       SUNNY     40  11  30 SW10G17   30.21F WCI  33
AINSWORTH      SUNNY     35   4  27 W10G16    30.22F WCI  28
O`NEILL        SUNNY     32   4  31 S15G22    30.30F WCI  22
BROWNLEE         N/A     40   2  20 W9          N/A  WCI  34
SPRINGVIEW       N/A     35   8  33 SW9         N/A  WCI  28
BREWSTER         N/A     35   7  30 S13         N/A  WCI  27
ROSE             N/A     35  12  38 SE13        N/A  WCI  27
NEWPORT          N/A     34   6  30 S15         N/A  WCI  24
SARGENT          N/A     32   9  38 W5G12       N/A  WCI  27
COMSTOCK         N/A     36   9  32 S9          N/A  WCI  29
CHAMBERS         N/A     33   6  31 S10G18      N/A  WCI  25
EWING            N/A     31   7  36 S14G23      N/A  WCI  21
$$

...OBSERVATIONS IN SOUTHWEST NEBRASKA AND FAR NORTHEAST COLORADO...

CITY           SKY/WX    TMP DP  RH WIND       PRES   REMARKS
WRAY           FAIR      45   6  20 SW8G16    30.27S
OGALLALA       SUNNY     44  18  35 W12       30.22F
LEXINGTON      SUNNY     34  11  39 SW14      30.31F WCI  24
PAXTON           N/A     40  19  43 W6          N/A
BRADY            N/A     36  13  38 S3          N/A
GOTHENBURG       N/A     36  11  35 S7          N/A  WCI  30
CALLAWAY         N/A     35  13  40 SW15        N/A  WCI  25
$$

...NORTH PLATTE AREA...

CITY           SKY/WX    TMP DP  RH WIND       PRES   REMARKS
DOWNTOWN         N/A     41  13  31 W3          N/A
$$

...SOME WEATHER OBSERVATIONS FROM AROUND THE REGION...

CITY           SKY/WX    TMP DP  RH WIND       PRES   REMARKS
SIOUX FALLS    SUNNY     20   3  48 SW12G18   30.39F WCI   8
HAYS           SUNNY     39   9  28 SW10      30.40F WCI  32
LIBERAL        SUNNY     34  23  64 SW13      30.41F WCI  25
$$



USA.gov is the U.S. government's official web portal to all federal, state and local government web resources and services.